CST,Max TemperatureF,Mean TemperatureF,Min TemperatureF,Max Dew PointF,MeanDew PointF,Min DewpointF,Max Humidity, Mean Humidity, Min Humidity, Max Sea Level PressureIn, Mean Sea Level PressureIn, Min Sea Level PressureIn, Max VisibilityMiles, Mean VisibilityMiles, Min VisibilityMiles, Max Wind SpeedMPH, Mean Wind SpeedMPH, Max Gust SpeedMPH,PrecipitationIn, CloudCover, Events, WindDirDegrees
2013-1-1,27,22,16,19,17,13,96,82,72,30.35,30.27,30.12,10,8,6,15,10,,0.00,7,,327
2013-1-2,37,26,15,25,20,13,95,80,57,30.38,30.30,30.23,10,10,7,15,7,21,0.00,1,,274
2013-1-3,37,28,19,20,17,14,93,73,44,30.54,30.45,30.32,10,10,10,10,7,,0.00,0,,300
2013-1-4,42,30,17,27,22,14,93,72,47,30.43,30.34,30.20,10,10,10,24,8,30,0.00,4,,215
2013-1-5,44,35,25,28,24,15,96,72,35,30.40,30.22,30.11,10,10,10,15,12,20,0.00,2,,253
2013-1-6,53,37,21,25,21,18,92,64,26,30.47,30.37,30.25,10,10,10,12,6,,0.00,0,,229
2013-1-7,53,40,28,25,23,21,75,54,30,30.24,30.11,29.99,10,10,10,23,15,32,0.00,0,,192
2013-1-8,62,45,28,31,27,22,82,60,31,30.20,30.02,29.92,10,10,10,18,9,25,0.00,0,,221
2013-1-9,51,38,26,39,30,23,97,73,39,30.41,30.28,30.16,10,10,5,17,6,23,0.02,4,Rain,29
2013-1-10,46,42,39,45,41,38,100,97,87,30.12,29.90,29.72,10,7,0,21,8,29,0.26,6,Fog-Rain,226
2013-1-11,63,52,39,42,35,20,93,64,37,29.86,29.66,29.55,10,10,10,28,19,37,0.00,0,,212
2013-1-12,37,27,17,27,18,9,93,78,47,30.16,30.03,29.87,10,7,0,21,11,30,0.00,6,Fog-Snow,10
2013-1-13,28,18,8,11,8,4,88,72,49,30.40,30.32,30.19,10,10,10,14,6,,0.00,1,,360
2013-1-14,32,20,8,16,12,5,88,70,44,30.46,30.38,30.27,10,10,10,12,2,,0.00,3,,72
2013-1-15,34,24,14,19,15,11,89,72,43,30.34,30.29,30.24,10,10,10,8,2,,0.00,3,,265
2013-1-16,54,36,17,30,23,14,88,68,40,30.32,30.21,30.10,10,10,10,15,8,21,0.00,1,,287
2013-1-17,55,42,28,28,26,24,85,64,33,30.56,30.46,30.33,10,10,10,12,6,,0.00,0,,255
2013-1-18,62,48,34,31,29,27,75,54,28,30.43,30.24,30.08,10,10,10,30,16,38,0.00,0,,195
2013-1-19,64,45,26,29,24,19,89,56,18,30.27,30.15,30.05,10,10,10,12,6,20,0.00,0,,282
2013-1-20,62,42,21,28,24,19,92,60,24,30.35,30.22,30.09,10,10,10,23,7,33,0.00,0,,178
2013-1-21,43,30,16,18,15,11,88,62,35,30.47,30.34,30.19,10,10,10,13,6,,0.00,0,,117
2013-1-22,60,44,27,27,23,17,85,56,26,30.23,30.18,30.10,10,10,10,14,7,,0.00,0,,211
2013-1-23,71,46,21,33,26,20,92,66,19,30.24,30.18,30.07,10,10,8,9,5,,0.00,0,,214
2013-1-24,36,30,24,28,20,17,85,71,59,30.32,30.21,30.10,10,10,10,14,8,,0.00,3,,45
2013-1-25,53,36,19,27,24,18,92,68,35,30.28,30.22,30.16,10,9,6,10,4,,0.00,0,,86
2013-1-26,55,40,24,37,29,22,91,64,38,30.20,30.08,29.92,10,10,8,24,7,33,0.00,2,Rain,177
2013-1-27,78,62,46,52,42,33,97,65,20,29.92,29.78,29.66,10,8,3,32,19,41,0.00,3,,199
2013-1-28,73,58,42,47,38,32,70,47,26,29.81,29.71,29.62,10,10,10,28,14,36,0.00,1,,204
2013-1-29,55,44,34,37,34,28,79,65,40,29.76,29.61,29.55,10,10,10,21,12,28,0.00,6,Rain,333
2013-1-30,45,34,24,28,18,6,80,60,20,30.07,29.96,29.78,10,10,9,23,17,29,0.00,2,Snow,303
2013-1-31,52,36,19,25,18,13,85,62,29,30.42,30.18,30.02,10,10,10,20,8,25,0.00,0,,86